SCP
0 0 1 2 2 1 0 0 0 0 0 0 0 1 0 0 0 0 0 0 0 0 0 0 0 0 0 0 0 0 0 0 0 0 0 0 0 0 0 0 0 0 0
0 0 1 2 1 1 0 0 0 0 0 0 0 0 0 0 0 0 0 0 0 0 0 0 0 0 0 0 0 0 0 0 0 0 0 0 0 0 0 0 0 0 0
0 0 1 1 1 1 0 0 0 0 0 0 0 0 0 0 0 0 0 0 0 0 0 0 0 0 0 0 0 0 0 0 0 0 0 0 0 0 0 0 0 0 0
0 0 1 1 1 0 0 0 0 0 0 0 0 0 0 0 0 0 0 0 0 0 0 0 0 0 0 0 0 0 0 0 0 0 0 0 0 0 0 0 0 0 0
0 0 1 1 1 0 0 0 0 0 0 0 0 0 0 0 0 0 0 0 0 0 0 0 0 0 0 0 0 0 0 0 0 0 0 0 0 0 0 0 0 0 0
0 0 1 2 2 1 0 0 0 0 0 0 0 0 0 0 0 0 0 0 0 0 0 0 0 0 0 0 0 0 0 0 0 0 0 0 0 0 0 0 0 0 0
0 1 1 2 1 1 1 0 0 0 0 0 0 0 0 0 0 0 0 0 0 0 0 0 0 0 0 0 0 0 0 0 0 0 0 0 0 0 0 0 0 0 0
0 1 0 0 0 0 0 0 0 0 0 0 0 0 0 0 0 0 0 0 0 0 0 0 0 0 0 0 0 0 0 0 0 0 0 0 0 0 0 0 0 0 0
1 0 0 0 0 0 0 0 0 0 0 0 0 0 0 0 0 0 0 0 0 0 0 0 0 0 0 0 0 0 0 0 0 0 0 0 0 0 0 0 0 0 0
0 0 0 0 0 0 0 0 0 0 0 0 0 0 0 0 0 0 0 0 0 0 0 0 0 0 0 0 0 0 0 0 0 0 0 0 0 0 0 0 0 0 0
0 0 0 0 0 0 0 0 0 0 0 0 0 0 0 0 0 0 0 0 0 0 0 0 0 0 0 0 0 0 0 0 0 0 0 0 0 0 0 0 0 0 0
0 0 0 0 0 0 0 0 0 0 0 0 0 0 0 0 0 0 0 0 0 0 0 0 0 0 0 0 0 0 0 0 0 0 0 0 0 0 0 0 0 0 0
0 0 0 0 0 0 0 0 0 0 0 0 0 0 0 0 0 0 0 0 0 0 0 0 0 0 0 0 0 0 0 0 0 0 0 0 0 0 0 0 0 0 0
0 0 0 0 0 0 0 0 0 0 0 0 0 0 0 0 0 0 0 0 0 0 0 0 0 0 0 0 0 0 0 0 0 0 0 0 0 0 0 0 0 0 0
0 0 0 0 0 0 0 0 0 0 0 0 0 0 0 0 0 0 0 0 0 0 0 0 0 0 0 0 0 0 0 0 0 0 0 0 0 0 0 0 0 0 0
0 0 -0 0 0 0 0 0 0 0 0 0 0 0 0 0 0 0 0 0 0 0 0 0 0 0 0 0 0 0 0 0 0 0 0 0 0 0 0 0 0 0 0
0 0 0 0 0 0 0 0 0 0 0 0 0 0 0 0 0 0 0 0 0 0 0 0 0 0 0 0 0 0 0 0 0 0 0 0 0 0 0 0 0 0 0
0 -0 -0 0 0 0 0 0 0 0 0 0 0 0 0 0 0 0 0 0 0 0 0 0 0 0 0 0 0 0 0 0 0 0 0 0 0 0 0 0 0 0 0
0 0 0 0 0 0 0 0 0 0 0 0 0 0 0 0 0 0 0 0 0 0 0 0 0 0 0 0 0 0 0 0 0 0 0 0 0 0 0 0 0 0 0
0 0 0 0 0 0 0 0 0 0 0 0 0 0 0 0 0 0 0 0 0 0 0 0 0 0 0 0 0 0 0 0 0 0 0 0 0 0 0 0 0 0 0
0 0 0 0 0 0 0 0 0 0 0 0 0 0 0 0 0 0 0 0 0 0 0 0 0 0 0 0 0 0 0 0 0 0 0 0 0 0 0 0 0 0 0
0 0 0 0 0 0 0 0 0 0 0 0 0 0 0 0 0 0 0 0 0 0 0 0 0 0 0 0 0 0 0 0 0 0 0 0 0 0 0 0 0 0 0
0 0 0 0 0 0 0 0 0 0 0 0 0 0 0 0 0 0 0 0 0 0 0 0 0 0 0 0 0 -0 -0 -0 0 0 -0 -0 -0 -0 0 0 0 0 0
0 0 0 0 0 0 0 0 0 0 0 -0 0 0 0 0 0 0 0 0 0 0 0 0 0 0 0 -0 -0 -0 0 0 0 -0 0 0 -0 -0 0 0 0 0 0
0 0 0 0 0 0 0 0 0 0 0 0 0 0 0 0 0 0 0 -0 0 0 0 0 -0 -0 -0 -0 -0 -0 -0 -0 -0 -0 0 -0 -0 0 0 0 0 0 0
0 0 0 0 0 0 0 0 0 0 0 0 0 0 0 0 0 0 0 0 0 -0 -0 -0 -0 -0 -0 -0 -0 -0 -0 -0 0 -0 -0 0 0 0 0 0 0 0 0
Wind_Speed_500mb
47 37 52 57 59 58 56 47 48 49 45 56 65 64 72 65 42 38 40 44 44 19 30 48 48 43 41 39 26 36 38 47 39 34 39 41 42 51 47 41 46 45 45
53 48 48 62 70 60 54 47 44 50 55 54 60 62 52 48 43 43 45 36 32 36 32 42 35 36 28 24 24 23 27 37 37 39 29 29 35 39 40 39 56 54 60
62 48 50 62 71 67 55 49 40 48 54 57 61 56 53 50 55 55 47 29 33 27 25 24 21 21 27 29 30 31 30 25 24 33 31 15 21 40 54 57 63 61 63
55 56 55 67 71 67 57 54 48 50 53 58 59 59 56 50 56 50 33 30 28 21 20 22 19 25 28 30 33 28 27 31 27 34 37 41 47 46 58 65 61 74 70
64 61 62 66 73 71 69 58 58 55 59 55 53 48 41 33 34 32 26 26 26 22 24 27 21 32 26 21 26 27 28 32 35 37 43 49 52 54 59 78 78 74 81
45 55 64 70 79 74 68 64 58 56 55 51 46 38 25 27 25 27 29 30 33 34 34 36 30 28 26 26 29 32 34 37 43 49 53 54 54 58 57 66 79 95 92
49 58 64 73 79 79 71 61 55 62 57 41 35 33 32 24 21 24 32 36 41 44 42 34 27 27 28 30 35 39 45 52 57 58 61 61 60 58 61 63 72 72 78
53 59 64 77 83 80 66 57 53 55 50 37 34 33 33 30 27 31 33 34 34 33 31 29 30 32 34 39 44 50 53 57 60 63 64 66 65 61 59 58 61 73 60
42 44 54 72 75 60 55 52 48 47 41 39 41 41 40 39 35 32 32 34 37 36 36 37 38 39 43 47 51 53 56 58 60 60 60 61 58 55 52 52 53 59 66
51 56 54 52 54 50 50 48 43 44 39 34 33 34 32 30 30 30 27 27 28 29 32 36 40 43 45 49 52 54 54 56 58 58 57 55 53 51 51 53 55 56 66
75 77 77 68 59 50 42 40 38 34 34 33 29 28 25 22 21 22 22 22 24 29 33 37 40 43 46 48 52 55 59 61 61 58 54 54 52 53 54 55 59 65 71
83 83 76 68 62 56 48 39 38 37 32 28 23 21 17 14 15 17 20 24 28 32 37 40 44 47 51 54 57 58 56 56 55 52 51 51 52 59 64 68 72 78 83
81 77 77 71 62 46 39 33 31 30 24 16 10 7 7 9 13 17 22 27 31 36 40 45 50 53 56 58 57 57 56 53 52 52 55 61 65 71 72 75 76 76 74
81 75 64 52 41 33 36 29 21 15 10 5 6 8 11 14 18 23 28 33 37 41 45 50 55 59 62 62 59 51 47 49 55 61 67 73 72 67 71 69 67 62 65
49 63 42 52 59 45 33 22 14 9 5 7 11 14 18 23 28 34 39 43 46 50 54 59 60 62 61 58 47 41 42 57 64 69 62 64 65 68 63 57 60 64 69
55 65 67 65 46 34 24 14 4 3 8 13 17 22 27 33 39 44 48 51 52 52 54 56 57 57 51 45 41 44 51 57 62 65 67 69 60 58 55 61 61 65 69
63 60 52 46 33 20 9 2 9 16 22 27 32 36 39 43 45 46 47 47 47 49 53 53 49 44 39 35 37 43 50 59 60 63 64 60 60 61 65 64 60 59 59
57 49 39 32 22 14 9 13 15 19 26 32 37 40 42 42 42 40 40 40 44 49 51 41 34 36 35 33 30 37 46 53 56 53 53 58 61 52 48 50 56 61 67
48 42 33 28 23 18 22 25 25 29 31 34 38 39 36 33 32 33 33 36 47 41 38 34 29 30 31 31 34 40 46 50 50 50 58 53 52 53 54 61 70 76 76
43 37 30 25 22 27 28 26 29 33 34 36 35 32 30 30 32 31 33 36 38 37 34 33 29 30 31 28 30 30 40 47 54 56 46 51 54 57 62 70 76 83 84
34 28 24 21 20 19 21 25 30 37 38 37 35 31 30 30 29 29 27 31 32 28 26 29 27 27 25 24 24 28 38 46 51 50 55 59 63 65 62 56 55 69 67
36 26 20 22 23 23 26 31 35 42 45 41 31 26 24 24 24 24 24 23 24 25 26 28 29 27 25 21 24 27 28 31 44 49 56 56 53 55 46 47 55 56 57
30 24 22 22 23 23 25 23 29 41 43 30 22 21 19 19 21 23 25 24 22 21 24 27 33 33 30 27 24 21 21 24 39 44 46 48 55 58 57 55 57 58 51
30 25 21 21 22 24 24 25 29 41 37 25 22 23 25 26 21 22 22 19 20 19 21 30 39 39 34 35 33 29 34 41 41 38 38 46 56 70 72 66 54 65 42
25 19 20 21 22 24 25 29 34 40 39 24 22 26 30 29 23 25 23 19 16 23 31 36 35 34 37 35 31 32 39 40 33 37 51 60 66 72 75 59 53 53 58
18 16 19 18 18 21 23 28 31 39 42 29 24 25 29 33 26 24 17 16 14 19 20 20 22 22 24 24 19 15 29 46 51 55 65 68 74 83 80 75 76 72 74
Wind_Direction_500mb
264 253 209 200 196 194 197 198 205 206 205 215 218 228 233 244 238 236 233 238 229 242 251 262 267 258 276 250 252 262 262 262 248 268 257 254 257 263 265 268 269 282 289
248 252 217 199 195 192 188 192 194 209 213 218 229 225 230 224 241 248 248 247 229 223 214 246 254 257 256 243 243 233 232 245 251 252 251 268 273 270 274 267 285 291 294
250 240 212 201 198 193 190 180 187 204 211 220 219 222 214 245 238 233 239 225 212 227 229 239 243 241 253 254 241 234 240 243 235 244 248 276 274 287 285 287 291 295 295
245 240 216 199 196 193 184 183 193 202 204 209 202 210 229 240 238 240 244 223 225 228 238 238 221 231 240 238 233 220 234 240 242 246 253 258 269 286 297 296 290 292 289
238 223 220 211 198 185 182 189 199 196 191 192 204 212 222 226 232 233 229 228 230 241 249 239 241 237 231 220 226 237 237 240 248 255 265 269 269 272 279 285 291 284 287
222 212 205 198 186 185 187 198 199 191 182 188 199 204 214 222 217 215 219 218 228 237 233 233 226 222 228 235 241 244 250 257 267 275 278 279 282 284 281 282 287 291 297
183 183 190 188 184 185 194 195 197 188 185 193 199 216 227 235 248 249 243 241 236 231 223 221 229 237 240 243 247 254 262 268 273 278 281 281 281 282 282 283 285 292 297
166 177 182 179 184 188 191 189 188 191 193 200 224 228 231 236 248 245 232 218 208 205 211 219 228 236 240 248 258 267 273 278 280 278 278 279 281 284 286 287 292 294 294
112 131 154 173 178 178 174 176 188 190 200 216 221 228 233 239 230 209 192 198 208 213 218 227 236 248 258 266 271 273 274 274 277 280 282 283 284 285 286 285 286 289 296
106 123 134 143 148 160 168 181 191 189 200 197 200 200 195 181 178 181 185 202 215 228 240 252 259 266 271 273 276 279 282 284 285 286 286 285 287 288 288 289 288 288 291
104 108 108 111 114 114 117 125 139 134 143 151 155 163 172 177 188 202 215 232 246 256 264 270 275 279 283 288 290 292 292 289 288 287 285 286 290 289 289 289 288 288 286
107 108 104 104 105 107 113 116 127 135 131 133 143 150 159 182 205 226 241 252 260 267 274 278 281 284 285 288 293 296 294 290 289 289 288 286 284 285 287 287 288 288 288
111 110 112 111 111 116 118 128 132 126 122 125 146 164 208 241 259 268 275 279 283 285 285 286 287 289 291 292 293 296 293 288 285 287 288 288 288 287 289 291 293 293 292
124 118 110 99 111 129 140 137 137 139 147 206 263 275 276 280 283 287 288 288 288 288 287 286 285 287 288 290 293 291 285 284 284 288 288 287 285 290 298 298 297 297 297
129 126 126 137 153 151 145 148 157 171 191 269 282 285 289 289 289 288 288 289 290 290 289 289 289 290 291 291 288 281 276 286 289 290 291 291 291 298 296 296 298 299 297
114 119 135 139 139 139 146 149 153 321 332 308 301 299 296 294 293 293 294 295 295 295 294 295 296 296 294 291 282 275 279 286 290 293 293 298 300 299 296 294 294 291 290
126 130 129 124 125 124 107 21 330 330 316 312 310 306 303 300 299 300 302 301 301 300 298 296 295 292 293 291 282 282 283 286 294 296 302 306 305 305 303 301 297 291 285
121 117 111 105 95 72 35 14 350 337 328 322 316 311 308 308 308 308 309 310 310 310 307 302 295 293 294 297 296 297 295 295 300 303 304 304 305 309 311 307 300 293 292
117 108 99 87 74 51 31 14 4 355 343 336 330 323 318 317 316 316 317 322 319 319 321 320 313 304 307 311 307 305 304 304 303 306 306 306 310 317 312 310 302 299 297
108 100 87 76 64 43 30 13 10 3 351 344 336 328 325 324 324 323 321 320 317 315 317 317 317 316 312 316 309 307 307 310 312 314 321 321 319 318 316 310 305 300 298
101 97 104 86 67 49 34 22 19 10 357 343 337 328 326 329 326 323 322 320 319 319 326 329 325 325 321 315 305 303 310 316 320 333 331 329 325 320 315 312 304 305 304
109 95 87 74 61 41 20 13 9 5 355 349 346 343 339 337 333 328 328 327 328 338 339 338 342 347 339 336 329 319 317 322 322 330 330 329 331 331 334 326 321 311 306
108 95 79 64 52 40 26 17 19 7 1 1 8 13 14 6 355 345 342 346 348 353 354 349 351 357 5 4 3 5 2 353 334 333 339 350 359 347 343 340 335 331 331
102 92 80 67 59 41 28 23 21 16 11 15 27 24 20 14 6 356 8 12 12 14 1 351 355 4 9 14 20 18 9 356 349 353 5 1 358 353 350 349 355 358 342
99 87 68 55 49 37 35 29 24 19 18 21 33 26 15 14 33 18 18 26 15 354 345 342 352 6 8 15 9 13 16 5 8 16 6 359 2 10 4 358 3 355 348
95 76 60 54 48 40 37 33 24 18 17 24 34 26 18 24 33 43 41 20 356 337 335 340 3 16 355 357 6 20 36 26 11 27 27 28 26 24 28 16 7 9 17
Wind_Speed_850mb
47 37 52 57 59 58 56 47 48 49 45 56 65 64 72 65 42 38 40 44 44 19 30 48 48 43 41 39 26 36 38 47 39 34 39 41 42 51 47 41 46 45 45
53 48 48 62 70 60 54 47 44 50 55 54 60 62 52 48 43 43 45 36 32 36 32 42 35 36 28 24 24 23 27 37 37 39 29 29 35 39 40 39 56 54 60
62 48 50 62 71 67 55 49 40 48 54 57 61 56 53 50 55 55 47 29 33 27 25 24 21 21 27 29 30 31 30 25 24 33 31 15 21 40 54 57 63 61 63
55 56 55 67 71 67 57 54 48 50 53 58 59 59 56 50 56 50 33 30 28 21 20 22 19 25 28 30 33 28 27 31 27 34 37 41 47 46 58 65 61 74 70
64 61 62 66 73 71 69 58 58 55 59 55 53 48 41 33 34 32 26 26 26 22 24 27 21 32 26 21 26 27 28 32 35 37 43 49 52 54 59 78 78 74 81
45 55 64 70 79 74 68 64 58 56 55 51 46 38 25 27 25 27 29 30 33 34 34 36 30 28 26 26 29 32 34 37 43 49 53 54 54 58 57 66 79 95 92
49 58 64 73 79 79 71 61 55 62 57 41 35 33 32 24 21 24 32 36 41 44 42 34 27 27 28 30 35 39 45 52 57 58 61 61 60 58 61 63 72 72 78
53 59 64 77 83 80 66 57 53 55 50 37 34 33 33 30 27 31 33 34 34 33 31 29 30 32 34 39 44 50 53 57 60 63 64 66 65 61 59 58 61 73 60
42 44 54 72 75 60 55 52 48 47 41 39 41 41 40 39 35 32 32 34 37 36 36 37 38 39 43 47 51 53 56 58 60 60 60 61 58 55 52 52 53 59 66
51 56 54 52 54 50 50 48 43 44 39 34 33 34 32 30 30 30 27 27 28 29 32 36 40 43 45 49 52 54 54 56 58 58 57 55 53 51 51 53 55 56 66
75 77 77 68 59 50 42 40 38 34 34 33 29 28 25 22 21 22 22 22 24 29 33 37 40 43 46 48 52 55 59 61 61 58 54 54 52 53 54 55 59 65 71
83 83 76 68 62 56 48 39 38 37 32 28 23 21 17 14 15 17 20 24 28 32 37 40 44 47 51 54 57 58 56 56 55 52 51 51 52 59 64 68 72 78 83
81 77 77 71 62 46 39 33 31 30 24 16 10 7 7 9 13 17 22 27 31 36 40 45 50 53 56 58 57 57 56 53 52 52 55 61 65 71 72 75 76 76 74
81 75 64 52 41 33 36 29 21 15 10 5 6 8 11 14 18 23 28 33 37 41 45 50 55 59 62 62 59 51 47 49 55 61 67 73 72 67 71 69 67 62 65
49 63 42 52 59 45 33 22 14 9 5 7 11 14 18 23 28 34 39 43 46 50 54 59 60 62 61 58 47 41 42 57 64 69 62 64 65 68 63 57 60 64 69
55 65 67 65 46 34 24 14 4 3 8 13 17 22 27 33 39 44 48 51 52 52 54 56 57 57 51 45 41 44 51 57 62 65 67 69 60 58 55 61 61 65 69
63 60 52 46 33 20 9 2 9 16 22 27 32 36 39 43 45 46 47 47 47 49 53 53 49 44 39 35 37 43 50 59 60 63 64 60 60 61 65 64 60 59 59
57 49 39 32 22 14 9 13 15 19 26 32 37 40 42 42 42 40 40 40 44 49 51 41 34 36 35 33 30 37 46 53 56 53 53 58 61 52 48 50 56 61 67
48 42 33 28 23 18 22 25 25 29 31 34 38 39 36 33 32 33 33 36 47 41 38 34 29 30 31 31 34 40 46 50 50 50 58 53 52 53 54 61 70 76 76
43 37 30 25 22 27 28 26 29 33 34 36 35 32 30 30 32 31 33 36 38 37 34 33 29 30 31 28 30 30 40 47 54 56 46 51 54 57 62 70 76 83 84
34 28 24 21 20 19 21 25 30 37 38 37 35 31 30 30 29 29 27 31 32 28 26 29 27 27 25 24 24 28 38 46 51 50 55 59 63 65 62 56 55 69 67
36 26 20 22 23 23 26 31 35 42 45 41 31 26 24 24 24 24 24 23 24 25 26 28 29 27 25 21 24 27 28 31 44 49 56 56 53 55 46 47 55 56 57
30 24 22 22 23 23 25 23 29 41 43 30 22 21 19 19 21 23 25 24 22 21 24 27 33 33 30 27 24 21 21 24 39 44 46 48 55 58 57 55 57 58 51
30 25 21 21 22 24 24 25 29 41 37 25 22 23 25 26 21 22 22 19 20 19 21 30 39 39 34 35 33 29 34 41 41 38 38 46 56 70 72 66 54 65 42
25 19 20 21 22 24 25 29 34 40 39 24 22 26 30 29 23 25 23 19 16 23 31 36 35 34 37 35 31 32 39 40 33 37 51 60 66 72 75 59 53 53 58
18 16 19 18 18 21 23 28 31 39 42 29 24 25 29 33 26 24 17 16 14 19 20 20 22 22 24 24 19 15 29 46 51 55 65 68 74 83 80 75 76 72 74
Wind_Direction_850mb
264 253 209 200 196 194 197 198 205 206 205 215 218 228 233 244 238 236 233 238 229 242 251 262 267 258 276 250 252 262 262 262 248 268 257 254 257 263 265 268 269 282 289
248 252 217 199 195 192 188 192 194 209 213 218 229 225 230 224 241 248 248 247 229 223 214 246 254 257 256 243 243 233 232 245 251 252 251 268 273 270 274 267 285 291 294
250 240 212 201 198 193 190 180 187 204 211 220 219 222 214 245 238 233 239 225 212 227 229 239 243 241 253 254 241 234 240 243 235 244 248 276 274 287 285 287 291 295 295
245 240 216 199 196 193 184 183 193 202 204 209 202 210 229 240 238 240 244 223 225 228 238 238 221 231 240 238 233 220 234 240 242 246 253 258 269 286 297 296 290 292 289
238 223 220 211 198 185 182 189 199 196 191 192 204 212 222 226 232 233 229 228 230 241 249 239 241 237 231 220 226 237 237 240 248 255 265 269 269 272 279 285 291 284 287
222 212 205 198 186 185 187 198 199 191 182 188 199 204 214 222 217 215 219 218 228 237 233 233 226 222 228 235 241 244 250 257 267 275 278 279 282 284 281 282 287 291 297
183 183 190 188 184 185 194 195 197 188 185 193 199 216 227 235 248 249 243 241 236 231 223 221 229 237 240 243 247 254 262 268 273 278 281 281 281 282 282 283 285 292 297
166 177 182 179 184 188 191 189 188 191 193 200 224 228 231 236 248 245 232 218 208 205 211 219 228 236 240 248 258 267 273 278 280 278 278 279 281 284 286 287 292 294 294
112 131 154 173 178 178 174 176 188 190 200 216 221 228 233 239 230 209 192 198 208 213 218 227 236 248 258 266 271 273 274 274 277 280 282 283 284 285 286 285 286 289 296
106 123 134 143 148 160 168 181 191 189 200 197 200 200 195 181 178 181 185 202 215 228 240 252 259 266 271 273 276 279 282 284 285 286 286 285 287 288 288 289 288 288 291
104 108 108 111 114 114 117 125 139 134 143 151 155 163 172 177 188 202 215 232 246 256 264 270 275 279 283 288 290 292 292 289 288 287 285 286 290 289 289 289 288 288 286
107 108 104 104 105 107 113 116 127 135 131 133 143 150 159 182 205 226 241 252 260 267 274 278 281 284 285 288 293 296 294 290 289 289 288 286 284 285 287 287 288 288 288
111 110 112 111 111 116 118 128 132 126 122 125 146 164 208 241 259 268 275 279 283 285 285 286 287 289 291 292 293 296 293 288 285 287 288 288 288 287 289 291 293 293 292
124 118 110 99 111 129 140 137 137 139 147 206 263 275 276 280 283 287 288 288 288 288 287 286 285 287 288 290 293 291 285 284 284 288 288 287 285 290 298 298 297 297 297
129 126 126 137 153 151 145 148 157 171 191 269 282 285 289 289 289 288 288 289 290 290 289 289 289 290 291 291 288 281 276 286 289 290 291 291 291 298 296 296 298 299 297
114 119 135 139 139 139 146 149 153 321 332 308 301 299 296 294 293 293 294 295 295 295 294 295 296 296 294 291 282 275 279 286 290 293 293 298 300 299 296 294 294 291 290
126 130 129 124 125 124 107 21 330 330 316 312 310 306 303 300 299 300 302 301 301 300 298 296 295 292 293 291 282 282 283 286 294 296 302 306 305 305 303 301 297 291 285
121 117 111 105 95 72 35 14 350 337 328 322 316 311 308 308 308 308 309 310 310 310 307 302 295 293 294 297 296 297 295 295 300 303 304 304 305 309 311 307 300 293 292
117 108 99 87 74 51 31 14 4 355 343 336 330 323 318 317 316 316 317 322 319 319 321 320 313 304 307 311 307 305 304 304 303 306 306 306 310 317 312 310 302 299 297
108 100 87 76 64 43 30 13 10 3 351 344 336 328 325 324 324 323 321 320 317 315 317 317 317 316 312 316 309 307 307 310 312 314 321 321 319 318 316 310 305 300 298
101 97 104 86 67 49 34 22 19 10 357 343 337 328 326 329 326 323 322 320 319 319 326 329 325 325 321 315 305 303 310 316 320 333 331 329 325 320 315 312 304 305 304
109 95 87 74 61 41 20 13 9 5 355 349 346 343 339 337 333 328 328 327 328 338 339 338 342 347 339 336 329 319 317 322 322 330 330 329 331 331 334 326 321 311 306
108 95 79 64 52 40 26 17 19 7 1 1 8 13 14 6 355 345 342 346 348 353 354 349 351 357 5 4 3 5 2 353 334 333 339 350 359 347 343 340 335 331 331
102 92 80 67 59 41 28 23 21 16 11 15 27 24 20 14 6 356 8 12 12 14 1 351 355 4 9 14 20 18 9 356 349 353 5 1 358 353 350 349 355 358 342
99 87 68 55 49 37 35 29 24 19 18 21 33 26 15 14 33 18 18 26 15 354 345 342 352 6 8 15 9 13 16 5 8 16 6 359 2 10 4 358 3 355 348
95 76 60 54 48 40 37 33 24 18 17 24 34 26 18 24 33 43 41 20 356 337 335 340 3 16 355 357 6 20 36 26 11 27 27 28 26 24 28 16 7 9 17